Location: Pian di Sc�
(43.6333°N, 11.5500°E)
Time: 16:07:35
(UTC+00:00)

Cosmos 2227 Rocket - Pass Details

Date: 07 August 2020
Orbit: 840 x 844 km, 71.0° (Epoch: 16 September)

Event Time Altitude Azimuth Distance (km) Brightness Sun altitude
Exits shadow 03:15:06 - 275° (W) 2,985 4.6 -9.5°
Reaches altitude 10° 03:17:44 10° 297° (WNW) 2,468 4.3 -9.1°
Maximum altitude 03:19:56 12° 320° (NW) 2,314 4.4 -8.8°
Drops below altitude 10° 03:22:09 10° 343° (NNW) 2,472 4.8 -8.4°
Sets 03:26:23 0° 13° (NNE) 3,410 6.1 -7.8°
